FW4443 Weather Reports


time (UTC)temp
F
wind
direction
speed
knots
gust
knots
rain 1hr
in
rain 24hr
in
rain mn
in
humidity
%
barometer
mb
20260502163309 78 34 1.7 8.7 0.00 0.00 0.00 15 1017.9
20260502162951 78 121 1.7 8.7 0.00 0.00 0.00 15 1018.0
20260502162625 77 23 1.7 8.7 0.00 0.00 0.00 16 1018.0
20260502162308 77 14 2.6 8.7 0.00 0.00 0.00 16 1018.0
20260502161943 77 108 1.7 8.7 0.00 0.00 0.00 19 1018.0
20260502161619 77 35 1.7 6.1 0.00 0.00 0.00 15 1018.1
20260502161254 76 26 1.7 4.3 0.00 0.00 0.00 15 1018.0
20260502160636 76 91 0.9 5.2 0.00 0.00 0.00 15 1018.1
20260502160321 75 148 0.9 5.2 0.00 0.00 0.00 16 1018.0
20260502152333 71 200 1.7 4.3 0.00 0.00 0.00 18 1017.8
20260502152011 71 166 1.7 4.3 0.00 0.00 0.00 20 1017.8
20260502151656 70 146 1.7 4.3 0.00 0.00 0.00 19 1017.7
20260502151341 70 154 1.7 4.3 0.00 0.00 0.00 19 1017.8
20260502151025 69 152 1.7 3.5 0.00 0.00 0.00 23 1017.6
20260502150709 68 155 1.7 3.5 0.00 0.00 0.00 21 1017.6
20260502150344 66 148 0.9 3.5 0.00 0.00 0.00 21 1017.7
20260502140129 58 0 0.0 0.0 0.00 0.00 0.00 32 1017.2
20260502130502 56 0 1.7 4.3 0.00 0.00 0.00 28 1016.7
20260502130144 57 252 1.7 4.3 0.00 0.00 0.00 27 1016.7
20260502123627 57 0 1.7 2.6 0.00 0.00 0.00 28 1016.5
20260502123309 57 0 1.7 2.6 0.00 0.00 0.00 27 1016.4
20260502122955 57 0 1.7 2.6 0.00 0.00 0.00 27 1016.4
20260502122338 58 0 1.7 2.6 0.00 0.00 0.00 27 1016.3
20260502122018 58 0 0.9 2.6 0.00 0.00 0.00 27 1016.2
20260502121704 58 0 0.9 2.6 0.00 0.00 0.00 28 1016.2
20260502121345 58 0 0.9 1.7 0.00 0.00 0.00 27 1016.3
20260502121020 58 0 0.9 1.7 0.00 0.00 0.00 26 1016.2
20260502120403 58 0 0.9 2.6 0.00 0.00 0.00 26 1016.2
20260502115726 58 0 0.9 2.6 0.00 0.00 0.00 26 1016.2
20260502115402 58 0 1.7 3.5 0.00 0.00 0.00 26 1016.2
20260502115041 58 0 1.7 3.5 0.00 0.00 0.00 26 1016.1
20260502114723 59 0 1.7 3.5 0.00 0.00 0.00 28 1016.1
20260502114407 59 0 2.6 3.5 0.00 0.00 0.00 27 1016.2
20260502114042 59 0 2.6 3.5 0.00 0.00 0.00 28 1016.1
20260502113718 59 0 1.7 3.5 0.00 0.00 0.00 30 1016.2
20260502113404 59 0 1.7 2.6 0.00 0.00 0.00 26 1016.2
20260502113050 59 0 1.7 2.6 0.00 0.00 0.00 26 1016.2
20260502112732 59 0 1.7 2.6 0.00 0.00 0.00 33 1016.2
20260502112413 59 0 1.7 2.6 0.00 0.00 0.00 36 1016.2
20260502112055 59 0 0.9 2.6 0.00 0.00 0.00 32 1016.2
20260502111737 59 0 0.9 2.6 0.00 0.00 0.00 24 1016.2
20260502111415 59 0 0.0 2.6 0.00 0.00 0.00 24 1016.2
20260502110756 59 0 0.0 0.0 0.00 0.00 0.00 24 1016.3
20260502110138 59 0 0.0 0.0 0.00 0.00 0.00 24 1016.3
20260502105821 59 0 0.0 0.0 0.00 0.00 0.00 24 1016.3
20260502105500 60 0 0.0 0.0 0.00 0.00 0.00 24 1016.2
20260502104842 60 0 0.0 0.0 0.00 0.00 0.00 23 1016.1
20260502104517 60 0 0.0 0.0 0.00 0.00 0.00 24 1016.1
20260502104158 60 0 0.0 0.0 0.00 0.00 0.00 23 1016.0
20260502103839 60 0 0.0 0.0 0.00 0.00 0.00 23 1016.0
20260502103524 61 0 0.0 0.0 0.00 0.00 0.00 23 1016.0
20260502103200 61 0 0.0 0.0 0.00 0.00 0.00 23 1016.1
20260502102843 61 0 0.0 0.0 0.00 0.00 0.00 22 1016.0
20260502102220 62 0 0.9 2.6 0.00 0.00 0.00 21 1016.1
20260502101859 62 0 0.9 1.7 0.00 0.00 0.00 21 1016.0
20260502101536 62 0 0.9 1.7 0.00 0.00 0.00 21 1016.0
20260502101211 63 0 0.9 1.7 0.00 0.00 0.00 21 1016.1
20260502100851 63 0 0.9 2.6 0.00 0.00 0.00 20 1016.1
20260502100536 63 0 0.9 2.6 0.00 0.00 0.00 20 1016.0
20260502100212 63 0 0.9 2.6 0.00 0.00 0.00 20 1016.1
20260502091244 67 0 0.9 6.1 0.00 0.00 0.00 16 1016.1
20260502090918 67 0 0.9 6.1 0.00 0.00 0.00 16 1016.2
20260502090553 67 0 0.9 6.1 0.00 0.00 0.00 16 1016.1
20260502090232 67 0 1.7 6.1 0.00 0.00 0.00 15 1016.2
20260502071422 67 0 0.9 6.1 0.00 0.00 0.00 14 1016.3
20260502071103 68 0 0.9 3.5 0.00 0.00 0.00 15 1016.3
20260502070741 68 0 0.0 3.5 0.00 0.00 0.00 15 1016.3
20260502070423 68 0 0.9 3.5 0.00 0.00 0.00 15 1016.2
20260502070100 68 0 0.9 3.5 0.00 0.00 0.00 15 1016.2
20260502065737 69 0 0.9 3.5 0.00 0.00 0.00 15 1016.1
20260502065117 69 0 0.9 3.5 0.00 0.00 0.00 14 1016.1
20260502064755 69 0 1.7 3.5 0.00 0.00 0.00 14 1016.1
20260502064437 69 0 0.9 3.5 0.00 0.00 0.00 14 1016.0
20260502064122 70 0 0.9 3.5 0.00 0.00 0.00 14 1016.0
20260502063801 70 0 0.9 2.6 0.00 0.00 0.00 14 1015.9
20260502063441 70 0 0.9 2.6 0.00 0.00 0.00 13 1015.9
20260502063126 70 0 0.9 2.6 0.00 0.00 0.00 13 1015.9
20260502062800 70 0 0.9 2.6 0.00 0.00 0.00 14 1015.9
20260502062438 70 0 0.0 4.3 0.00 0.00 0.00 13 1015.9
20260502062115 70 0 0.9 4.3 0.00 0.00 0.00 13 1015.8
20260502061759 70 0 0.9 4.3 0.00 0.00 0.00 13 1015.8
20260502061136 70 0 1.7 4.3 0.00 0.00 0.00 14 1015.8
20260502060817 71 0 0.9 4.3 0.00 0.00 0.00 13 1015.7
20260502060455 71 0 0.9 3.5 0.00 0.00 0.00 14 1015.6
20260502055839 71 0 1.7 3.5 0.00 0.00 0.00 13 1015.6
20260502055516 71 0 0.9 3.5 0.00 0.00 0.00 13 1015.5
20260502055156 72 0 0.9 4.3 0.00 0.00 0.00 13 1015.5
20260502054834 72 0 0.9 4.3 0.00 0.00 0.00 13 1015.5
20260502053911 72 0 1.7 4.3 0.00 0.00 0.00 13 1015.4
20260502053550 72 0 1.7 4.3 0.00 0.00 0.00 13 1015.4
20260502053228 72 0 1.7 4.3 0.00 0.00 0.00 13 1015.4
20260502052907 72 0 1.7 6.1 0.00 0.00 0.00 13 1015.4
20260502052548 72 0 1.7 6.1 0.00 0.00 0.00 13 1015.3
20260502052223 72 0 1.7 11.3 0.00 0.00 0.00 13 1015.4
20260502051858 72 0 2.6 11.3 0.00 0.00 0.00 13 1015.3
20260502051540 72 0 2.6 11.3 0.00 0.00 0.00 13 1015.2
20260502051218 72 0 4.3 11.3 0.00 0.00 0.00 13 1015.3
20260502050856 71 0 3.5 11.3 0.00 0.00 0.00 13 1015.2
20260502050534 71 0 3.5 11.3 0.00 0.00 0.00 13 1015.2
20260502050217 71 0 1.7 7.8 0.00 0.00 0.00 14 1015.2
20260502045857 71 0 1.7 6.1 0.00 0.00 0.00 14 1015.0
20260502045533 71 0 1.7 6.1 0.00 0.00 0.00 15 1015.0
20260502045209 71 0 1.7 6.1 0.00 0.00 0.00 16 1014.9
20260502044549 72 0 1.7 4.3 0.00 0.00 0.00 16 1014.9
20260502044231 72 0 1.7 4.3 0.00 0.00 0.00 15 1014.8
20260502043912 72 0 2.6 4.3 0.00 0.00 0.00 15 1014.7
20260502043551 72 0 2.6 4.3 0.00 0.00 0.00 15 1014.7
20260502043233 73 0 1.7 4.3 0.00 0.00 0.00 14 1014.7
20260502042912 73 0 0.9 4.3 0.00 0.00 0.00 14 1014.7
20260502042557 73 0 0.9 2.6 0.00 0.00 0.00 13 1014.5
20260502042236 73 0 0.0 2.6 0.00 0.00 0.00 14 1014.4
20260502041918 73 0 0.0 2.6 0.00 0.00 0.00 13 1014.3
20260502041555 74 0 0.0 2.6 0.00 0.00 0.00 13 1014.3
20260502041238 74 0 0.0 0.9 0.00 0.00 0.00 13 1014.2
20260502040923 74 0 0.9 4.3 0.00 0.00 0.00 12 1014.2
20260502040605 74 0 1.7 4.3 0.00 0.00 0.00 12 1014.2
20260502040245 74 0 0.9 4.3 0.00 0.00 0.00 12 1014.2
20260502035921 75 0 0.9 4.3 0.00 0.00 0.00 12 1014.1
20260502035604 75 0 0.9 2.6 0.00 0.00 0.00 12 1014.1
20260502035238 75 0 0.9 4.3 0.00 0.00 0.00 12 1014.0
20260502034915 75 0 0.9 4.3 0.00 0.00 0.00 12 1013.9
20260502034551 76 0 1.7 4.3 0.00 0.00 0.00 12 1013.9
20260502034229 76 0 1.7 6.1 0.00 0.00 0.00 12 1013.8
20260502033904 76 0 1.7 6.1 0.00 0.00 0.00 11 1013.8
20260502033539 76 0 1.7 6.1 0.00 0.00 0.00 11 1013.7
20260502033223 77 0 1.7 6.1 0.00 0.00 0.00 11 1013.7
20260502032909 77 0 1.7 6.1 0.00 0.00 0.00 11 1013.6
20260502032554 77 0 1.7 6.1 0.00 0.00 0.00 11 1013.6
20260502032233 77 0 1.7 7.0 0.00 0.00 0.00 11 1013.6
20260502031919 77 0 1.7 7.0 0.00 0.00 0.00 11 1013.5
20260502031557 77 0 1.7 7.0 0.00 0.00 0.00 11 1013.4
20260502031239 77 0 2.6 11.3 0.00 0.00 0.00 11 1013.3
20260502030915 77 0 2.6 11.3 0.00 0.00 0.00 11 1013.2
20260502030600 77 0 3.5 11.3 0.00 0.00 0.00 11 1013.2
20260502030235 77 0 4.3 11.3 0.00 0.00 0.00 11 1013.1
20260502025920 77 0 5.2 11.3 0.00 0.00 0.00 11 1013.0
20260502025306 78 0 4.3 9.6 0.00 0.00 0.00 11 1012.9
20260502024943 78 0 4.3 8.7 0.00 0.00 0.00 11 1012.9
20260502024624 78 0 4.3 8.7 0.00 0.00 0.00 11 1012.9
20260502024308 78 0 3.5 8.7 0.00 0.00 0.00 11 1013.0
20260502023950 78 0 2.6 7.8 0.00 0.00 0.00 11 1012.8
20260502023335 78 0 2.6 7.0 0.00 0.00 0.00 11 1012.7
20260502023011 78 0 3.5 8.7 0.00 0.00 0.00 11 1012.7
20260502022650 78 0 3.5 8.7 0.00 0.00 0.00 11 1012.7
20260502022326 78 0 3.5 8.7 0.00 0.00 0.00 11 1012.7
20260502022003 78 0 4.3 8.7 0.00 0.00 0.00 11 1012.6
20260502021641 79 0 3.5 8.7 0.00 0.00 0.00 11 1012.6
20260502021023 79 0 2.6 7.0 0.00 0.00 0.00 11 1012.5
20260502020708 79 0 2.6 7.0 0.00 0.00 0.00 11 1012.7
20260502020350 79 101 1.7 7.0 0.00 0.00 0.00 11 1012.6
20260502020029 79 61 1.7 7.0 0.00 0.00 0.00 13 1012.6
20260502015711 79 39 1.7 7.0 0.00 0.00 0.00 12 1012.5
20260502015356 79 345 1.7 7.0 0.00 0.00 0.00 12 1012.5
20260502014432 80 0 1.7 5.2 0.00 0.00 0.00 12 1012.4
20260502014115 80 71 1.7 5.2 0.00 0.00 0.00 11 1012.4
20260502013801 80 52 1.7 5.2 0.00 0.00 0.00 12 1012.3
20260502013445 80 65 1.7 5.2 0.00 0.00 0.00 12 1012.3
20260502013126 80 80 0.9 3.5 0.00 0.00 0.00 12 1012.4
20260502012801 81 44 0.9 3.5 0.00 0.00 0.00 12 1012.4
20260502012437 81 21 1.7 7.8 0.00 0.00 0.00 12 1012.3
20260502012112 81 78 1.7 7.8 0.00 0.00 0.00 12 1012.4
20260502011749 81 114 2.6 7.8 0.00 0.00 0.00 12 1012.3
20260502011423 81 105 2.6 7.8 0.00 0.00 0.00 12 1012.3
20260502011108 81 101 3.5 7.8 0.00 0.00 0.00 12 1012.3
20260502010753 82 55 3.5 7.8 0.00 0.00 0.00 12 1012.3
20260502010429 82 110 3.5 11.3 0.00 0.00 0.00 12 1012.3
20260502010113 82 79 3.5 11.3 0.00 0.00 0.00 12 1012.2
20260502005748 82 62 3.5 11.3 0.00 0.00 0.00 12 1012.3
20260502005424 82 66 3.5 11.3 0.00 0.00 0.00 12 1012.2
20260502004809 82 130 2.6 11.3 0.00 0.00 0.00 11 1012.2
20260502004452 82 26 2.6 8.7 0.00 0.00 0.00 11 1012.2
20260502004128 83 22 2.6 8.7 0.00 0.00 0.00 11 1012.3
20260502003502 83 40 1.7 7.0 0.00 0.00 0.00 12 1012.2
20260502003143 83 34 1.7 13.0 0.00 0.00 0.00 12 1012.2
20260502002819 83 350 2.6 13.0 0.00 0.00 0.00 11 1012.2
20260502002459 83 232 4.3 13.0 0.00 0.00 0.00 11 1012.3
20260502001838 83 109 5.2 13.0 0.00 0.00 0.00 12 1012.4
20260502001516 83 51 5.2 13.0 0.00 0.00 0.00 13 1012.3
20260502001151 83 90 5.2 9.6 0.00 0.00 0.00 11 1012.3
20260502000833 83 133 5.2 8.7 0.00 0.00 0.00 12 1012.4
20260502000512 84 144 5.2 8.7 0.00 0.00 0.00 12 1012.4
20260501235851 84 111 4.3 10.4 0.00 0.00 0.00 12 1012.4
20260501235532 85 118 4.3 10.4 0.00 0.00 0.00 11 1012.4
20260501235211 85 103 3.5 10.4 0.00 0.00 0.00 11 1012.4
20260501234251 85 81 4.3 10.4 0.00 0.00 0.00 11 1012.4
20260501233928 85 28 4.3 9.6 0.00 0.00 0.00 11 1012.4
20260501233607 85 21 5.2 9.6 0.00 0.00 0.00 11 1012.4
20260501233250 85 33 4.3 9.6 0.00 0.00 0.00 11 1012.5
20260501232930 85 98 3.5 9.6 0.00 0.00 0.00 12 1012.4
20260501232612 86 115 3.5 13.9 0.00 0.00 0.00 11 1012.4
20260501231651 85 23 6.1 13.9 0.00 0.00 0.00 11 1012.4
20260501230735 85 171 5.2 13.0 0.00 0.00 0.00 11 1012.4
20260501230417 85 123 6.1 13.0 0.00 0.00 0.00 12 1012.4
20260501230057 85 105 5.2 13.0 0.00 0.00 0.00 14 1012.5
20260501225742 85 88 6.1 13.0 0.00 0.00 0.00 12 1012.6
20260501225116 85 63 5.2 12.2 0.00 0.00 0.00 13 1012.6
20260501224753 84 87 3.5 14.8 0.00 0.00 0.00 14 1012.5
20260501224436 85 65 3.5 14.8 0.00 0.00 0.00 12 1012.6
20260501224112 84 105 5.2 14.8 0.00 0.00 0.00 15 1012.7
20260501223457 86 101 7.0 14.8 0.00 0.00 0.00 14 1012.9
20260501223141 85 120 5.2 14.8 0.00 0.00 0.00 13 1012.8
20260501222820 85 136 4.3 14.8 0.00 0.00 0.00 13 1012.9
20260501222457 85 101 5.2 14.8 0.00 0.00 0.00 12 1012.8
20260501221841 87 119 6.1 14.8 0.00 0.00 0.00 12 1013.0
20260501221523 87 37 5.2 14.8 0.00 0.00 0.00 12 1012.9
20260501220301 86 84 3.5 12.2 0.00 0.00 0.00 13 1013.2
20260501215946 86 33 2.6 9.6 0.00 0.00 0.00 12 1013.2
20260501215621 85 57 1.7 6.1 0.00 0.00 0.00 13 1013.3
20260501215305 85 74 2.6 8.7 0.00 0.00 0.00 13 1013.3
20260501214938 86 355 3.5 8.7 0.00 0.00 0.00 11 1013.4
20260501214621 87 9 3.5 8.7 0.00 0.00 0.00 13 1013.5
20260501214304 87 5 3.5 13.9 0.00 0.00 0.00 12 1013.4
20260501213941 86 0 3.5 13.9 0.00 0.00 0.00 13 1013.4
20260501213625 86 355 3.5 13.9 0.00 0.00 0.00 14 1013.6
20260501213311 86 57 5.2 13.9 0.00 0.00 0.00 12 1013.6
20260501212947 85 30 4.3 13.9 0.00 0.00 0.00 16 1013.6
20260501212628 85 5 3.5 13.9 0.00 0.00 0.00 13 1013.7
20260501212012 85 81 1.7 5.2 0.00 0.00 0.00 13 1013.8
20260501211351 86 113 2.6 7.0 0.00 0.00 0.00 16 1014.0
20260501211032 88 101 2.6 7.0 0.00 0.00 0.00 12 1014.0
20260501210716 87 36 2.6 10.4 0.00 0.00 0.00 13 1014.0
20260501210357 85 105 3.5 10.4 0.00 0.00 0.00 15 1014.1
20260501210036 86 157 4.3 10.4 0.00 0.00 0.00 15 1014.2
20260501205715 87 63 5.2 10.4 0.00 0.00 0.00 13 1014.2
20260501205351 88 42 5.2 10.4 0.00 0.00 0.00 12 1014.3
20260501205026 87 5 5.2 10.4 0.00 0.00 0.00 13 1014.2
20260501204707 86 57 4.3 9.6 0.00 0.00 0.00 15 1014.2
20260501204343 86 108 3.5 9.6 0.00 0.00 0.00 14 1014.3
20260501204020 85 80 2.6 9.6 0.00 0.00 0.00 15 1014.3
20260501203705 83 161 1.7 8.7 0.00 0.00 0.00 15 1014.2
20260501203348 83 108 1.7 8.7 0.00 0.00 0.00 13 1014.3
20260501203032 83 178 1.7 12.2 0.00 0.00 0.00 14 1014.7
20260501202718 83 104 2.6 12.2 0.00 0.00 0.00 14 1014.4
20260501202056 85 90 5.2 12.2 0.00 0.00 0.00 13 1014.5
20260501201742 85 35 4.3 12.2 0.00 0.00 0.00 13 1014.5
20260501201422 86 32 4.3 12.2 0.00 0.00 0.00 13 1014.5
20260501201102 86 59 3.5 11.3 0.00 0.00 0.00 15 1014.6
20260501200745 85 26 3.5 8.7 0.00 0.00 0.00 15 1014.6
20260501200429 84 59 2.6 8.7 0.00 0.00 0.00 15 1014.8
20260501200112 83 110 1.7 8.7 0.00 0.00 0.00 14 1014.8
20260501195755 83 28 1.7 9.6 0.00 0.00 0.00 15 1014.8
20260501195438 83 56 1.7 9.6 0.00 0.00 0.00 13 1014.9
20260501195119 83 17 2.6 9.6 0.00 0.00 0.00 13 1015.0
20260501194459 86 82 3.5 9.6 0.00 0.00 0.00 12 1015.0
20260501194140 87 49 2.6 9.6 0.00 0.00 0.00 12 1015.0
20260501193825 86 57 1.7 7.8 0.00 0.00 0.00 15 1015.1
20260501193502 86 243 2.6 7.8 0.00 0.00 0.00 12 1015.1
20260501193147 87 11 2.6 7.8 0.00 0.00 0.00 13 1015.3
20260501191920 86 297 1.7 8.7 0.00 0.00 0.00 13 1015.4
20260501191605 84 38 1.7 12.2 0.00 0.00 0.00 13 1015.5
20260501191247 85 126 2.6 12.2 0.00 0.00 0.00 14 1015.5
20260501190924 84 10 3.5 12.2 0.00 0.00 0.00 14 1015.5
20260501190603 85 59 4.3 12.2 0.00 0.00 0.00 15 1015.6
20260501190249 85 71 5.2 12.2 0.00 0.00 0.00 12 1015.6
20260501185930 85 74 6.1 12.2 0.00 0.00 0.00 16 1015.5
20260501185604 85 120 6.1 11.3 0.00 0.00 0.00 14 1015.5
20260501185242 83 99 5.2 13.9 0.00 0.00 0.00 14 1015.6
20260501184318 83 72 5.2 13.9 0.00 0.00 0.00 13 1015.6
20260501183954 83 57 6.1 13.9 0.00 0.00 0.00 14 1015.8
20260501183336 84 104 5.2 13.9 0.00 0.00 0.00 14 1015.9
20260501183014 83 103 3.5 9.6 0.00 0.00 0.00 15 1016.0
20260501182651 83 145 3.5 8.7 0.00 0.00 0.00 14 1015.9
20260501182328 82 65 3.5 8.7 0.00 0.00 0.00 14 1016.1
20260501181707 83 95 2.6 9.6 0.00 0.00 0.00 16 1016.1
20260501181341 82 138 2.6 9.6 0.00 0.00 0.00 14 1016.1
20260501181019 81 5 3.5 9.6 0.00 0.00 0.00 13 1016.1
20260501180700 82 70 3.5 9.6 0.00 0.00 0.00 14 1016.2
20260501180338 81 30 2.6 9.6 0.00 0.00 0.00 14 1016.2
20260501180015 81 84 1.7 8.7 0.00 0.00 0.00 14 1016.2
20260501175654 81 0 1.7 8.7 0.00 0.00 0.00 15 1016.2
20260501175035 80 0 3.5 8.7 0.00 0.00 0.00 19 1016.3
20260501174710 80 0 3.5 8.7 0.00 0.00 0.00 17 1016.3
20260501174349 79 0 2.6 8.7 0.00 0.00 0.00 15 1016.2
20260501174030 80 0 3.5 7.8 0.00 0.00 0.00 15 1016.3
20260501173710 79 0 3.5 7.8 0.00 0.00 0.00 17 1016.3
20260501173345 81 46 3.5 7.8 0.00 0.00 0.00 16 1016.3
20260501173024 81 36 1.7 7.0 0.00 0.00 0.00 15 1016.3
20260501172702 80 5 1.7 7.0 0.00 0.00 0.00 17 1016.3
20260501172016 79 77 1.7 7.0 0.00 0.00 0.00 17 1016.3
20260501171655 78 82 1.7 7.0 0.00 0.00 0.00 17 1016.4
20260501171335 77 38 2.6 8.7 0.00 0.00 0.00 18 1016.2
20260501171021 78 93 3.5 8.7 0.00 0.00 0.00 17 1016.3
20260501170655 78 62 4.3 8.7 0.00 0.00 0.00 17 1016.3
20260501170333 78 103 3.5 10.4 0.00 0.00 0.00 19 1016.4
20260501170018 78 80 2.6 10.4 0.00 0.00 0.00 18 1016.4
20260501165653 78 95 2.6 10.4 0.00 0.00 0.00 18 1016.3
20260501165331 77 0 3.5 10.4 0.00 0.00 0.00 18 1016.4
20260501164708 77 0 2.6 10.4 0.00 0.00 0.00 21 1016.3
20260501164354 76 0 0.9 10.4 0.00 0.00 0.00 17 1016.3
20260501164032 77 0 1.7 7.8 0.00 0.00 0.00 17 1016.3
20260501163711 76 0 1.7 7.8 0.00 0.00 0.00 19 1016.3